TimePST,TemperatureF,Dew PointF,Humidity,Sea Level PressureIn,VisibilityMPH,Wind Direction,Wind SpeedMPH,Gust SpeedMPH,PrecipitationIn,Events,Conditions,WindDirDegrees,DateUTC
12:15 AM,23.0,17.6,80,30.01,10.0,WSW,6.9,-,N/A,,Scattered Clouds,240,2013-01-12 08:15:00
12:55 AM,23.0,17.6,80,30.03,10.0,Calm,Calm,-,N/A,,Overcast,0,2013-01-12 08:55:00
1:15 AM,24.8,19.4,80,30.03,8.0,WSW,3.5,-,N/A,,Overcast,250,2013-01-12 09:15:00
1:35 AM,26.6,21.2,80,30.02,10.0,West,4.6,-,N/A,,Overcast,280,2013-01-12 09:35:00
1:55 AM,24.8,23.0,93,30.02,10.0,North,4.6,-,N/A,,Overcast,10,2013-01-12 09:55:00
2:15 AM,23.0,19.4,86,30.02,10.0,NNE,6.9,-,N/A,,Scattered Clouds,20,2013-01-12 10:15:00
2:35 AM,23.0,19.4,86,30.02,10.0,North,6.9,-,N/A,,Partly Cloudy,360,2013-01-12 10:35:00
2:55 AM,23.0,19.4,86,30.02,10.0,Calm,Calm,-,N/A,,Partly Cloudy,0,2013-01-12 10:55:00
3:15 AM,19.4,17.6,93,30.02,10.0,WNW,3.5,-,N/A,,Clear,300,2013-01-12 11:15:00
3:35 AM,15.8,14.0,93,30.02,10.0,SE,3.5,-,N/A,,Clear,140,2013-01-12 11:35:00
3:55 AM,17.6,15.8,93,30.02,10.0,Calm,Calm,-,N/A,,Clear,0,2013-01-12 11:55:00
4:15 AM,17.6,14.0,86,30.03,10.0,Calm,Calm,-,N/A,,Clear,0,2013-01-12 12:15:00
4:35 AM,17.6,15.8,93,30.02,10.0,Calm,Calm,-,N/A,,Clear,0,2013-01-12 12:35:00
4:55 AM,17.6,14.0,86,30.03,10.0,Calm,Calm,-,N/A,,Clear,0,2013-01-12 12:55:00
5:15 AM,14.0,12.2,93,30.03,10.0,Calm,Calm,-,N/A,,Clear,0,2013-01-12 13:15:00
5:35 AM,14.0,12.2,93,30.04,10.0,SE,4.6,-,N/A,,Clear,130,2013-01-12 13:35:00
5:55 AM,15.8,14.0,93,30.05,10.0,Calm,Calm,-,N/A,,Clear,0,2013-01-12 13:55:00
6:15 AM,15.8,14.0,93,30.06,10.0,Calm,Calm,-,N/A,,Clear,0,2013-01-12 14:15:00
6:35 AM,17.6,14.0,86,30.06,10.0,Calm,Calm,-,N/A,,Clear,0,2013-01-12 14:35:00
6:55 AM,15.8,12.2,86,30.07,10.0,Calm,Calm,-,N/A,,Clear,0,2013-01-12 14:55:00
7:15 AM,14.0,10.4,86,30.08,10.0,ESE,3.5,-,N/A,,Clear,120,2013-01-12 15:15:00
7:35 AM,15.8,12.2,86,30.09,10.0,SE,4.6,-,N/A,,Clear,140,2013-01-12 15:35:00
7:55 AM,17.6,14.0,86,30.09,10.0,Calm,Calm,-,N/A,,Clear,0,2013-01-12 15:55:00
8:15 AM,19.4,15.8,86,30.10,10.0,Calm,Calm,-,N/A,,Clear,0,2013-01-12 16:15:00
8:35 AM,23.0,17.6,80,30.10,9.0,Calm,Calm,-,N/A,,Clear,0,2013-01-12 16:35:00
8:55 AM,26.6,19.4,74,30.10,9.0,Calm,Calm,-,N/A,,Clear,0,2013-01-12 16:55:00
9:15 AM,28.4,23.0,80,30.10,10.0,WNW,5.8,-,N/A,,Partly Cloudy,290,2013-01-12 17:15:00
9:35 AM,28.4,21.2,74,30.10,10.0,WNW,5.8,-,N/A,,Partly Cloudy,300,2013-01-12 17:35:00
9:55 AM,28.4,21.2,74,30.10,10.0,WNW,3.5,-,N/A,,Scattered Clouds,290,2013-01-12 17:55:00
10:55 AM,32.0,21.2,64,30.09,9.0,NNW,8.1,-,N/A,,Mostly Cloudy,330,2013-01-12 18:55:00
11:15 AM,32.0,21.2,64,30.08,10.0,WNW,5.8,-,N/A,,Scattered Clouds,300,2013-01-12 19:15:00
11:35 AM,32.0,21.2,64,30.07,10.0,NW,10.4,-,N/A,,Mostly Cloudy,310,2013-01-12 19:35:00
11:55 AM,32.0,23.0,69,30.06,10.0,NW,10.4,-,N/A,,Mostly Cloudy,310,2013-01-12 19:55:00
12:15 PM,32.0,23.0,69,30.06,10.0,NW,9.2,-,N/A,,Scattered Clouds,320,2013-01-12 20:15:00
12:35 PM,32.0,23.0,69,30.05,7.0,NW,11.5,-,N/A,,Partly Cloudy,310,2013-01-12 20:35:00
12:55 PM,32.0,21.2,64,30.04,9.0,NW,12.7,-,N/A,,Clear,320,2013-01-12 20:55:00
1:15 PM,32.0,19.4,60,30.04,10.0,NW,11.5,16.1,N/A,,Clear,310,2013-01-12 21:15:00
1:35 PM,33.8,19.4,56,30.04,10.0,NNW,10.4,-,N/A,,Clear,330,2013-01-12 21:35:00
1:55 PM,33.8,19.4,56,30.04,9.0,NW,9.2,-,N/A,,Clear,310,2013-01-12 21:55:00
2:15 PM,33.8,19.4,56,30.04,10.0,NW,10.4,-,N/A,,Clear,310,2013-01-12 22:15:00
2:35 PM,33.8,19.4,56,30.04,9.0,NW,11.5,-,N/A,,Clear,320,2013-01-12 22:35:00
2:55 PM,33.8,19.4,56,30.04,10.0,NW,12.7,-,N/A,,Clear,310,2013-01-12 22:55:00
3:15 PM,32.0,19.4,60,30.04,10.0,NW,10.4,-,N/A,,Clear,310,2013-01-12 23:15:00
3:35 PM,32.0,19.4,60,30.03,10.0,NW,10.4,-,N/A,,Clear,310,2013-01-12 23:35:00
4:15 PM,32.0,21.2,64,30.03,10.0,NW,10.4,-,N/A,,Clear,310,2013-01-13 00:15:00
4:35 PM,28.4,21.2,74,30.04,10.0,NW,10.4,-,N/A,,Clear,310,2013-01-13 00:35:00
4:55 PM,26.6,21.2,80,30.04,10.0,NW,8.1,-,N/A,,Mostly Cloudy,320,2013-01-13 00:55:00
5:15 PM,26.6,21.2,80,30.04,10.0,NW,8.1,-,N/A,,Scattered Clouds,320,2013-01-13 01:15:00
5:35 PM,24.8,21.2,86,30.03,10.0,NW,6.9,-,N/A,,Partly Cloudy,310,2013-01-13 01:35:00
5:55 PM,24.8,21.2,86,30.04,10.0,NW,5.8,-,N/A,,Partly Cloudy,310,2013-01-13 01:55:00
6:15 PM,24.8,19.4,80,30.04,10.0,NW,4.6,-,N/A,,Clear,310,2013-01-13 02:15:00
6:35 PM,23.0,21.2,93,30.04,10.0,West,4.6,-,N/A,,Clear,260,2013-01-13 02:35:00
6:55 PM,21.2,19.4,93,30.04,9.0,Calm,Calm,-,N/A,,Scattered Clouds,0,2013-01-13 02:55:00
7:15 PM,23.0,21.2,93,30.04,10.0,Calm,Calm,-,N/A,,Overcast,0,2013-01-13 03:15:00
7:35 PM,24.8,23.0,93,30.04,10.0,West,3.5,-,N/A,,Overcast,270,2013-01-13 03:35:00
7:55 PM,24.8,21.2,86,30.04,10.0,West,3.5,-,N/A,,Overcast,260,2013-01-13 03:55:00
8:15 PM,24.8,19.4,80,30.04,10.0,Calm,Calm,-,N/A,,Overcast,0,2013-01-13 04:15:00
8:35 PM,24.8,19.4,80,30.04,10.0,Calm,Calm,-,N/A,,Mostly Cloudy,0,2013-01-13 04:35:00
9:15 PM,19.4,15.8,86,30.04,9.0,ESE,5.8,-,N/A,,Clear,120,2013-01-13 05:15:00
9:35 PM,17.6,15.8,93,30.04,10.0,SE,3.5,-,N/A,,Clear,140,2013-01-13 05:35:00
10:15 PM,19.4,15.8,86,30.05,10.0,SE,5.8,-,N/A,,Mostly Cloudy,130,2013-01-13 06:15:00
10:55 PM,19.4,15.8,86,30.05,10.0,Calm,Calm,-,N/A,,Overcast,0,2013-01-13 06:55:00
11:15 PM,19.4,15.8,86,30.05,10.0,SSE,3.5,-,N/A,,Overcast,150,2013-01-13 07:15:00
11:35 PM,19.4,15.8,86,30.05,10.0,Calm,Calm,-,N/A,,Overcast,0,2013-01-13 07:35:00
11:55 PM,21.2,17.6,86,30.05,10.0,ESE,4.6,-,N/A,,Overcast,120,2013-01-13 07:55:00